Date,TemperatureHighF,TemperatureAvgF,TemperatureLowF,DewpointHighF,DewpointAvgF,DewpointLowF,HumidityHigh,HumidityAvg,HumidityLow,PressureMaxIn,PressureMinIn,WindSpeedMaxMPH,WindSpeedAvgMPH,GustSpeedMaxMPH,PrecipitationSumIn
2013-1-1,19.1,4.3,-9.1,15.1,-0.4,-13.6,84,80,71,30.38,30.12,16,3,16,0.00
2013-1-2,20.5,15.8,12.8,17.0,12.6,9.7,89,87,82,30.15,30.01,15,3,15,0.00
2013-1-3,19.7,12.1,8.1,14.8,6.9,2.3,84,79,69,30.34,30.15,21,8,21,0.00
2013-1-4,28.7,20.9,14.8,17.1,13.7,11.0,86,74,61,30.18,30.09,22,6,22,0.00
2013-1-5,24.2,16.8,10.6,14.2,11.1,6.7,86,78,65,30.13,29.91,17,4,17,0.00
2013-1-6,22.3,15.0,9.1,14.2,9.2,3.4,88,78,65,30.29,30.08,21,5,21,0.00
2013-1-7,36.4,28.8,19.9,25.6,21.7,14.2,85,75,64,30.08,29.94,26,8,26,0.02
2013-1-8,33.2,27.0,18.2,27.9,22.2,15.2,89,82,73,30.01,29.79,21,5,21,0.00
2013-1-9,33.7,30.3,26.1,26.4,22.3,19.8,83,72,62,30.40,29.95,32,10,32,0.00
2013-1-10,40.7,34.9,28.3,32.0,25.2,20.6,92,69,48,30.33,29.75,24,7,24,0.31
2013-1-11,40.9,36.6,34.1,39.0,34.7,32.0,93,93,91,29.75,29.38,20,6,20,0.03
2013-1-12,37.5,13.8,3.1,35.1,7.2,-3.4,91,75,66,30.14,29.40,33,14,33,0.00
2013-1-13,8.3,3.8,0.7,3.5,-2.1,-4.8,82,76,70,30.34,30.12,15,4,15,0.00
2013-1-14,13.2,7.7,3.9,6.9,1.5,-1.1,92,76,64,30.50,30.34,18,4,18,0.00
2013-1-15,31.2,20.7,10.8,18.5,12.5,6.4,83,71,56,30.35,29.89,23,7,23,0.00
2013-1-16,36.0,25.3,11.1,31.2,18.5,0.6,90,76,47,30.27,29.70,24,10,24,0.01
2013-1-17,18.1,11.2,2.3,10.4,2.3,-4.7,77,67,52,30.46,30.27,16,4,16,0.00
2013-1-18,41.4,30.5,16.4,32.0,23.7,10.4,86,76,61,30.36,29.78,25,8,25,0.00
2013-1-19,38.1,23.4,1.5,30.2,16.7,-5.3,89,75,57,30.29,29.69,50,12,50,0.00
2013-1-20,7.6,1.9,-3.4,1.2,-6.3,-11.6,81,68,56,30.49,30.29,24,9,24,0.00
2013-1-21,-3.4,-7.3,-11.8,-11.4,-15.4,-19.7,76,67,61,30.46,30.37,23,10,23,0.00
2013-1-22,5.7,-3.7,-11.6,-2.4,-11.5,-17.6,74,69,61,30.52,30.35,13,2,13,0.00
2013-1-23,15.1,6.9,-4.7,8.1,-2.3,-16.6,92,66,50,30.69,30.25,29,7,29,0.00
2013-1-24,13.6,2.4,-6.3,2.6,-9.1,-17.3,63,58,49,30.76,30.26,21,6,21,0.00
2013-1-25,18.4,11.8,2.9,12.5,3.2,-4.1,78,68,56,30.38,30.03,29,9,29,0.00
2013-1-26,24.9,12.8,-0.4,12.2,3.2,-5.3,81,66,52,30.43,30.17,23,4,23,0.00
2013-1-27,32.0,30.1,24.9,29.1,22.7,11.9,92,75,56,30.18,29.82,20,4,20,0.11
2013-1-28,34.4,31.6,30.3,32.3,29.6,28.4,93,92,91,29.92,29.65,18,3,18,0.22
2013-1-29,34.4,31.4,27.1,31.0,27.8,20.8,93,86,76,29.77,29.55,17,6,17,0.10
2013-1-30,27.1,16.8,7.7,20.7,10.1,0.4,81,75,68,29.82,29.66,23,12,23,0.00
2013-1-31,7.7,-0.3,-8.8,1.6,-7.5,-16.5,78,71,64,30.38,29.82,24,12,24,0.01